Tracking 33446 objects as of 10-Mar-2026
HD Live streaming from Space Station
objects crossing your sky now

STARLINK-35587

Track STARLINK-35587 now!
10-day predictions
STARLINK-35587 is classified as:


NORAD ID: 66158
Int'l Code: 2025-240N
Perigee: 481.5 km
Apogee: 483.1 km
Inclination: 53.2 °
Period: 94.1 minutes
Semi major axis: 6853 km
RCS: Unknown
Launch date: October 25, 2025
Source: United States (US)
Launch site: AIR FORCE EASTERN TEST RANGE (AFETR)
Your satellite tracking list
Your tracking list is empty




NASA's NSSDC Master Catalog

Two Line Element Set (TLE):
1 66158U 25240N   26069.12208956  .00035819  00000-0  12153-2 0  9995
2 66158  53.1600  60.8739 0001139  84.1845 275.9285 15.30210847 22058
Source of the keplerian elements: AFSPC